Other Public Products
Issued by NWS Charleston, SC

Home | Current Version | Previous Version | Text Only | Print | Product List | Glossary On
Versions: 1 2 3 4 5 6 7 8 9 10 11 12 13 14 15 16 17 18 19 20 21 22 23 24 25 26 27 28 29 30 31 32 33 34 35 36 37 38 39 40 41 42 43 44 45 46 47 48 49 50
000
FPUS82 KCHS 212227
OPUCHS

TEST...KCHS/KSAV Gateway Observations...TEST
National Weather Service Charleston SC
500 PM EST SUN JAN 21 2018

NOTE: "fair" indicates few or no clouds below 12,000 feet with no
significant weather and/or obstructions to visibility.

SCZ050-WAZ558-NCZ071-TXZ119-213-PAZ071-DCZ001-FLZ074-172-MI076-
NYZ176-178-MAZ016-IL014-TNZ027-NJZ106-GAZ044-MD014-212300-

...Gateway Observations for Charleston International...

CITY           SKY/WX    TMP DP  RH WIND       PRES   REMARKS
Chas Airport   FAIR      63  42  46 S9        30.21R
Seattle        PTSUNNY   48  38  68 S17G23    29.84S
Charlotte      FAIR      67  41  38 S5        30.18S
Dallas DFW     CLOUDY    73  62  68 S20G32    29.70F
Dallas Love    CLOUDY    72  62  71 S20G25    29.73F
Philladelphia  MOCLDY    51  37  58 SW6       30.17R
Wash National  CLOUDY    57  40  52 S5        30.14S
Baltimore      MOCLDY    52  38  58 E7        30.15R
Miami          FAIR      76  64  66 E13       30.12R
Detroit        FOG       40  39  97 CALM      30.03R VSB 1/4
Newark         MOCLDY    50  33  52 SW12      30.15R
Laguardia      MOCLDY    49  29  46 CALM      30.14R
J F K          MOCLDY    45  32  60 S5        30.16R
Boston Logan   MOCLDY    46  29  51 W5        30.14R
Ft. Lauderdale PTSUNNY   72  70  93 E9        30.12S
Chicago O`Hare FOG       44  41  89 E6        29.89F VSB 1/4
Chicago Midway DRIZZLE   44  42  93 E6        29.90S FOG
Houston Bush   LGT RAIN  70  66  87 S13G18    29.90S
Houston Hobby  LGT RAIN  69  67  93 SE12      29.90S
Nashville      FAIR      68  48  48 S16       30.07S
Atlanta        FAIR      67  45  45 S8        30.18R

$$

GAZ044-118-TXZ119-213-NCZ071-DCZ001-MDZ014-506-PAZ021-071-NJZ106-
NYZ176-178-MAZ106-OHZ011-021-055-MIZ076-KYZ091-ILZ014-INZ047-
MNZ060-ONZ431-212300-

...Gateway Observations for Savannah International...

CITY           SKY/WX    TMP DP  RH WIND       PRES   REMARKS
Savannah Arpt  FAIR      67  41  38 S9        30.19S
Atlanta        FAIR      67  45  45 S8        30.18R
Charlotte      FAIR      67  41  38 S5        30.18S
Dallas DFW     CLOUDY    73  62  68 S20G32    29.70F
Houston Bush   LGT RAIN  70  66  87 S13G18    29.90S
Wash National  CLOUDY    57  40  52 S5        30.14S
Wash Dulles    CLOUDY    58  42  55 E3        30.13R
Baltimore      MOCLDY    52  38  58 E7        30.15R
Philadelphia   MOCLDY    51  37  58 SW6       30.17R
Newark         MOCLDY    50  33  52 SW12      30.15R
Laguardia      MOCLDY    49  29  46 CALM      30.14R
J F K          MOCLDY    45  32  60 S5        30.16R
Boston         MOCLDY    46  29  51 W5        30.14R
Pittsburg      CLOUDY    50  42  74 SW9       30.07R
Akron          CLOUDY    45  39  79 SW10      30.05R
Cleveland      CLOUDY    47  42  83 S7        30.06R
Cincinnati     CLOUDY    54  50  86 S12       30.04R
Columbus       CLOUDY    49  47  92 S5        30.05S
Detroit        FOG       40  39  97 CALM      30.03R VSB 1/4
Chicago O`Hare FOG       44  41  89 E6        29.89F VSB 1/4
Minneapolis    CLOUDY    37  30  75 N9        29.95S WCI  30
Indianapolis   FOG       49  49 100 S9        29.99S VSB 1
Toronto Canada CLOUDY    36  32  87 SE3       30.06R

$$




USA.gov is the U.S. government's official web portal to all federal, state and local government web resources and services.